星链-4386 (STARLINK-4386 )

导读

STARLINK-4386是美国SpaceX公司星链计划中的一颗卫星,于2022年8月31日发射升空。作为星链星座的组成部分,它主要为全球用户提供高速互联网接入服务,尤其覆盖偏远地区。卫星运行在近地轨道,依托大规模星座布局,助力实现全球无缝网络覆盖,推动太空互联网基础设施建设,目前已在轨正常运行多年。

基本信息
目录编号:
53649
目录名称:
STARLINK-4386
国际标识:
2022-105B
轨道中心:
EARTH
卫星名称:
星链-4386
卫星全名:
星链-4386 (STARLINK-4386 )
卫星状态:
在轨 (已飞行1474 天)
发射日期:
2022-08-31 UTC
国别 :
美国 (US)
星等 :
--
该卫星已列入 空间交会检测服务 Space Conjunction Data Service (SCDS) ,当前飞行风险评估等级: 无高风险
轨道信息
数据来源 国际轨道数据
星历时间: 2026-09-12T16:00:02+0800
17小时前
查看轨道信息
半长轴: 6652.919km
偏心率: 0.0001925
轨道倾角: 97.588°
近地点辐角 116.919°
升交点赤经 146.707°
平近点角 141.721°
近地点: 273.501km
远地点: 276.063km
周期: 90.007分钟
每日圈数: 15.998693
详细信息
固有亮度:
5
最大亮度:
2.5
卫星平台:
Starlink v1.5
覆盖范围:
全球
运营商:
太空探索技术公司
运营商所在国:
美国
制造商(研发单位):
太空探索技术公司
制造商所在国:
美国
使用方式:
暂无
卫星简介
星链(Starlink)计划是由太空探索技术公司(SpaceX)提出的一个巨型低轨卫星互联网星座项目,计划在2019年至2024年间在太空搭建由约1.2万颗卫星组成的“星链”网络,其中1584颗将部署在地球上空550千米处的近地轨道,并从2020年开始工作。该卫星仍在工作。
2D轨道图
3D轨道图
轨道高度分析图
轨道倾角分析图
轨道综合分析图
查看轨道综合分析图
与全量物体交会距离演化趋势
与全量物体交会风险概率演化趋势